[[{"header":{"parameterUnit":"m.s-1","parameterCategory":1,"la1":30.2991,"la2":30.254,"lo1":-89.0895,"lo2":-89.0444,"dy":0.0017,"dx":0.0017,"nx":28,"ny":28,"refTime":"2024-11-22T09:00:00:Z","depth":0,"parameterNumber":2,"parameterNumberName":"U-component_of_WINDS"},"data":[0,0,0,0,0,0,0,0,0,0,0,0,0,0,0,0,0,0,0,0,0,0,0,0,0,0,0,0,0,0,0,0,0,0,0,0,0,0,0,0,0,0,0,0,0,0,0,0,0,0,0,0,0,0,0,0,0,0,1.6198,1.6197,0,1.6168,1.6168,1.6168,1.61,1.6099,1.6098,1.6096,1.6067,1.6068,1.6068,0,0,0,0,0,0,0,0,0,0,0,0,0,1.6198,1.6199,1.6198,1.6197,1.6197,1.6168,1.6168,1.6167,1.6101,1.6099,1.6097,1.6096,1.6067,1.6068,1.6069,0,0,0,0,0,0,0,0,0,0,0,0,0,1.6187,1.6199,1.6198,1.616,1.6157,1.6168,1.6168,1.6167,1.6101,1.6099,1.6097,1.6095,1.6067,1.6068,1.6069,1.6115,0,0,1.6071,1.6071,0,0,0,0,0,0,0,0,1.6187,1.6187,1.6166,1.6163,1.6159,1.6136,1.6157,1.615,1.6102,1.6122,1.6096,1.6094,1.6092,1.6091,1.609,1.6114,1.6112,1.6071,1.6072,1.6072,1.6072,0,0,0,0,0,0,0,1.6188,1.6187,1.6186,1.6166,1.6161,1.6145,1.6141,1.6156,1.6119,1.612,1.6115,1.6113,1.609,1.6089,1.6088,1.6112,1.6071,1.6072,1.6072,1.6073,1.6174,1.6176,0,0,0,0,0,0,1.6194,1.6189,1.6187,1.6185,1.6168,1.6147,1.6143,1.6145,1.6119,1.6113,1.6114,1.611,1.6089,1.6088,1.6087,1.614,1.6072,1.6073,1.6073,1.6171,1.6174,1.6176,0,0,0,0,0,0,1.6194,1.6195,1.6188,1.6186,1.6183,1.6149,1.6153,1.6146,1.6145,1.6114,1.6108,1.612,1.6087,1.6086,1.6109,1.6138,1.6073,1.6074,1.6169,1.6172,1.6175,1.6246,0,0,0,0,0,0,1.6195,1.6195,1.6212,1.6186,1.6184,1.621,1.6155,1.6147,1.6147,1.614,1.6118,1.6113,1.6085,1.6108,1.611,1.6138,1.6074,1.6166,1.617,1.6174,1.6241,1.6251,1.626,0,0,0,0,0,1.6195,1.6233,1.6213,1.6213,1.6204,1.6212,1.621,1.6177,1.6149,1.6166,1.6146,1.6113,1.6135,1.6111,1.6112,1.6141,1.6164,1.6169,1.6174,1.6236,1.6249,1.626,0,0,0,0,0,0,1.6263,1.6229,1.6206,1.6237,1.6228,1.62,1.622,1.6192,1.6191,1.6185,1.6145,1.614,1.6169,1.6157,1.6131,1.6185,1.6144,1.615,1.6191,1.6203,1.6213,1.6215,1.6075,0,0,0,0,0,1.6282,1.629,1.626,1.629,1.6287,1.6255,1.6257,1.6233,1.6221,1.6217,1.6199,1.619,1.6194,1.6198,1.6201,1.6239,1.6234,1.626,1.627,1.6278,1.6283,1.6303,1.6314,1.6193,1.6193,1.6193,0,0,1.632,1.6303,1.631,1.6304,1.6293,1.6304,1.6252,1.6265,1.6272,1.6219,1.6239,1.6226,1.6213,1.6244,1.6257,1.6235,1.6316,1.6284,1.6291,1.6291,1.6309,1.6321,1.6331,1.6196,1.6196,1.6195,0,0,1.6395,1.6383,1.6407,1.6398,1.6383,1.6362,1.6368,1.6345,1.6334,1.6353,1.6314,1.6323,1.6331,1.6324,1.6321,1.6396,1.6365,1.6398,1.6448,1.6468,1.6478,1.6486,1.6512,1.6522,1.6403,1.6403,1.6403,0,1.6445,1.6458,1.6423,1.6438,1.6437,1.639,1.6414,1.6407,1.6394,1.6395,1.6371,1.6382,1.637,1.6398,1.6417,1.6416,1.6422,1.6399,1.6479,1.6487,1.6494,1.6519,1.6529,1.6407,1.6407,1.6406,1.6406,0,1.652,1.653,1.6551,1.654,1.6541,1.6561,1.6529,1.6535,1.6511,1.6493,1.6514,1.6498,1.6497,1.6502,1.6479,1.6528,1.6515,1.6486,1.6444,1.651,1.6533,1.6542,1.6413,1.6411,1.641,1.6409,0,0,1.6636,1.6605,1.6614,1.6608,1.6589,1.6596,1.6615,1.6614,1.6619,1.6613,1.6627,1.6637,1.661,1.6607,1.6583,1.6601,1.6661,1.6569,1.6568,1.6587,1.6714,1.6736,1.6747,1.6641,1.6643,1.6644,1.6715,0,1.6706,1.6735,1.6704,1.674,1.6749,1.6705,1.6721,1.6712,1.6695,1.6701,1.6684,1.6691,1.6655,1.6653,1.6668,1.665,1.6686,1.6645,1.6654,1.6655,1.6658,1.6759,1.6782,1.6849,1.6724,1.6725,1.6726,0,1.6791,1.6788,1.6825,1.6804,1.6807,1.6822,1.6818,1.6825,1.6814,1.6801,1.6798,1.677,1.6787,1.6747,1.6771,1.6744,1.6746,1.6738,1.674,1.6739,1.6694,1.6761,1.687,1.688,1.674,1.6739,1.6738,0,1.6872,1.6877,1.69,1.6897,1.6873,1.6885,1.6876,1.6863,1.6864,1.6862,1.6862,1.6862,1.6862,1.6863,1.6836,1.6809,1.6863,1.6821,1.6853,1.6854,1.6866,1.6865,1.6977,1.6869,1.6869,1.6868,1.6868,0,1.6953,1.6977,1.6936,1.6949,1.6975,1.6941,1.6968,1.6954,1.6943,1.6954,1.6917,1.6928,1.6891,1.6899,1.6878,1.6901,1.6901,1.6891,1.6885,1.6894,1.6896,1.6895,1.6889,1.6871,1.687,1.687,1.6869,0,1.7047,1.702,1.7042,1.7018,1.7013,1.7033,1.7013,1.7026,1.7007,1.7022,1.7023,1.6995,1.7002,1.6975,1.6978,1.6963,1.6998,1.6984,1.7001,1.6997,1.7031,1.7028,1.7146,1.7159,1.7043,1.7044,1.7045,0,1.71,1.7117,1.7096,1.71,1.7093,1.7101,1.7102,1.707,1.7073,1.7062,1.7076,1.708,1.7082,1.7096,1.7075,1.7078,1.7064,1.7105,1.7064,1.7072,1.7064,1.7063,1.7065,1.7113,1.7114,1.7116,1.7117,0,1.7197,1.7183,1.7186,1.7186,1.7188,1.7186,1.7181,1.7187,1.7152,1.7158,1.7164,1.7166,1.7169,1.7174,1.7172,1.7163,1.7134,1.713,1.7138,1.7147,1.7156,1.7151,1.7024,1.7127,1.7126,1.7125,1.7125,1.7124,1.7272,1.7286,1.7273,1.7278,1.7271,1.7268,1.7278,1.7261,1.7266,1.7266,1.7247,1.7258,1.7247,1.7242,1.7236,1.7245,1.7225,1.7237,1.7239,1.7242,1.7248,1.7155,1.7244,1.7244,1.7244,1.7243,1.7243,0,1.7367,1.7357,1.7362,1.7356,1.7361,1.7333,1.7327,1.7333,1.7342,1.7335,1.7338,1.7346,1.7351,1.7332,1.7334,1.7345,1.7332,1.7346,1.7345,1.7343,1.7265,1.7258,1.7357,1.7357,1.7357,1.7357,1.7357,1.7357,1.7417,1.7438,1.7424,1.7442,1.7432,1.7442,1.744,1.7438,1.7431,1.7442,1.7446,1.7434,1.7422,1.7423,1.7427,1.7421,1.7424,1.7443,1.7433,1.736,1.7349,1.7338,1.7331,1.7444,1.7444,1.751,1.7511,1.7511]},{"header":{"parameterUnit":"m.s-1","parameterCategory":1,"la1":30.2991,"la2":30.254,"lo1":-89.0895,"lo2":-89.0444,"dy":0.0017,"dx":0.0017,"nx":28,"ny":28,"refTime":"2024-11-22T09:00:00:Z","depth":0,"parameterNumber":3,"parameterNumberName":"V-component_of_WINDS"},"data":[0,0,0,0,0,0,0,0,0,0,0,0,0,0,0,0,0,0,0,0,0,0,0,0,0,0,0,0,0,0,0,0,0,0,0,0,0,0,0,0,0,0,0,0,0,0,0,0,0,0,0,0,0,0,0,0,0,0,-4.418,-4.4182,0,-4.4343,-4.4345,-4.4347,-4.4324,-4.4322,-4.4319,-4.4316,-4.448,-4.4487,-4.4494,0,0,0,0,0,0,0,0,0,0,0,0,0,-4.3846,-4.3852,-4.418,-4.4182,-4.4184,-4.4343,-4.4345,-4.4347,-4.4325,-4.4321,-4.4318,-4.4315,-4.4478,-4.4486,-4.4494,0,0,0,0,0,0,0,0,0,0,0,0,0,-4.3998,-4.3854,-4.418,-4.4192,-4.4195,-4.4342,-4.4345,-4.4348,-4.4325,-4.4321,-4.4317,-4.4314,-4.4475,-4.4485,-4.4495,-4.464,0,0,-4.4527,-4.4531,0,0,0,0,0,0,0,0,-4.399,-4.4011,-4.4188,-4.4192,-4.4195,-4.4309,-4.4287,-4.4446,-4.4326,-4.4276,-4.4316,-4.4312,-4.4426,-4.444,-4.448,-4.4648,-4.4655,-4.4528,-4.4534,-4.4539,-4.4541,0,0,0,0,0,0,0,-4.3979,-4.4003,-4.4244,-4.4191,-4.4195,-4.4188,-4.4206,-4.4317,-4.4372,-4.428,-4.4279,-4.4298,-4.4427,-4.447,-4.4483,-4.4657,-4.4528,-4.4537,-4.4543,-4.4547,-4.4951,-4.4955,0,0,0,0,0,0,-4.3966,-4.3995,-4.4239,-4.4249,-4.408,-4.4198,-4.4217,-4.4277,-4.437,-4.4381,-4.4302,-4.4297,-4.4454,-4.4471,-4.4489,-4.4664,-4.4538,-4.4548,-4.4554,-4.4946,-4.4952,-4.4956,0,0,0,0,0,0,-4.3959,-4.3988,-4.4233,-4.4122,-4.4153,-4.4208,-4.4275,-4.4282,-4.4324,-4.4387,-4.4396,-4.4335,-4.4452,-4.4475,-4.4603,-4.4669,-4.4553,-4.4562,-4.4941,-4.4948,-4.4954,-4.5015,0,0,0,0,0,0,-4.3949,-4.3985,-4.4042,-4.4123,-4.4159,-4.4345,-4.4279,-4.4288,-4.4343,-4.4338,-4.4421,-4.4431,-4.445,-4.4587,-4.4613,-4.4681,-4.457,-4.4935,-4.4944,-4.4952,-4.5007,-4.5023,-4.5036,0,0,0,0,0,-4.3937,-4.4052,-4.4045,-4.4074,-4.423,-4.4349,-4.4369,-4.439,-4.4348,-4.4405,-4.4445,-4.4428,-4.4658,-4.4601,-4.4629,-4.4702,-4.4931,-4.4941,-4.4951,-4.5,-4.502,-4.5036,0,0,0,0,0,0,-4.3976,-4.4063,-4.4056,-4.4201,-4.4268,-4.4345,-4.4417,-4.4409,-4.4489,-4.4481,-4.4502,-4.4521,-4.4651,-4.4689,-4.4624,-4.4846,-4.4788,-4.4805,-4.4816,-4.4835,-4.4849,-4.4837,-4.4579,0,0,0,0,0,-4.4002,-4.4091,-4.4162,-4.4283,-4.4317,-4.4361,-4.4413,-4.4424,-4.4494,-4.4521,-4.4571,-4.4638,-4.4725,-4.4782,-4.4866,-4.5013,-4.503,-4.5076,-4.5091,-4.5103,-4.5116,-4.5195,-4.5217,-4.499,-4.499,-4.499,0,0,-4.4055,-4.4114,-4.4169,-4.4292,-4.4345,-4.4436,-4.4385,-4.4484,-4.4552,-4.4536,-4.466,-4.4699,-4.4775,-4.4913,-4.4976,-4.4949,-4.5183,-4.5116,-4.5125,-4.5132,-4.5208,-4.5229,-4.5248,-4.4997,-4.4996,-4.4994,0,0,-4.4199,-4.4253,-4.4359,-4.4413,-4.4494,-4.4523,-4.4548,-4.4627,-4.4652,-4.4777,-4.4767,-4.4847,-4.4997,-4.5052,-4.5099,-4.5263,-4.5251,-4.529,-4.5366,-4.5443,-4.5461,-4.5476,-4.5534,-4.5554,-4.5303,-4.5304,-4.5304,0,-4.4254,-4.4393,-4.4414,-4.4514,-4.4568,-4.4559,-4.4666,-4.4717,-4.4821,-4.4858,-4.4827,-4.5015,-4.5066,-4.5215,-4.5255,-4.5294,-4.5323,-4.528,-4.5457,-4.5473,-4.5488,-4.5543,-4.5564,-4.5308,-4.5307,-4.5307,-4.5307,0,-4.4457,-4.4553,-4.4628,-4.473,-4.4792,-4.4895,-4.4931,-4.4992,-4.4996,-4.5028,-4.5154,-4.5215,-4.5311,-4.5347,-4.5353,-4.5498,-4.5478,-4.5452,-4.5394,-4.5513,-4.5565,-4.5586,-4.5314,-4.5312,-4.5311,-4.531,0,0,-4.4629,-4.4741,-4.4768,-4.4814,-4.4903,-4.4977,-4.5079,-4.5173,-4.5224,-4.5296,-4.5381,-4.5508,-4.5484,-4.5538,-4.5549,-4.5617,-4.5741,-4.5582,-4.5584,-4.5608,-4.5903,-4.5922,-4.5946,-4.5734,-4.5738,-4.5741,-4.5896,0,-4.4781,-4.4962,-4.4984,-4.5145,-4.5233,-4.5225,-4.5314,-4.5377,-4.5409,-4.5488,-4.5523,-4.5612,-4.5574,-4.5606,-4.5673,-4.5712,-4.5801,-4.5701,-4.5812,-4.5816,-4.5792,-4.5973,-4.5994,-4.6138,-4.5917,-4.592,-4.5923,0,-4.4982,-4.506,-4.523,-4.5306,-4.5343,-4.5423,-4.551,-4.5586,-4.5657,-4.5676,-4.5736,-4.5739,-4.5842,-4.5781,-4.5924,-4.5856,-4.5903,-4.5929,-4.5935,-4.5945,-4.5876,-4.5988,-4.6184,-4.6205,-4.5955,-4.5953,-4.595,0,-4.5089,-4.5237,-4.5357,-4.5397,-4.5488,-4.5544,-4.5585,-4.5652,-4.5707,-4.5783,-4.5819,-4.5906,-4.5954,-4.602,-4.6046,-4.6,-4.6187,-4.6129,-4.6204,-4.6204,-4.6243,-4.624,-4.6449,-4.6275,-4.6275,-4.6274,-4.6274,0,-4.5255,-4.5359,-4.5407,-4.5481,-4.5596,-4.562,-4.5733,-4.5771,-4.5831,-4.5912,-4.591,-4.5985,-4.6015,-4.6095,-4.6116,-4.623,-4.6252,-4.6268,-4.6273,-4.6268,-4.6266,-4.6298,-4.6288,-4.628,-4.6279,-4.6278,-4.6277,0,-4.5395,-4.5431,-4.5561,-4.5638,-4.5659,-4.5741,-4.5806,-4.5876,-4.5907,-4.6009,-4.6034,-4.6083,-4.6176,-4.6209,-4.6322,-4.6336,-4.6469,-4.6465,-4.6445,-4.6445,-4.6519,-4.6511,-4.6755,-4.6787,-4.6593,-4.6595,-4.6596,0,-4.5498,-4.5578,-4.5663,-4.5717,-4.576,-4.5847,-4.5903,-4.5929,-4.5987,-4.6074,-4.6134,-4.6227,-4.6303,-4.6453,-4.6497,-4.6584,-4.6581,-4.6661,-4.6594,-4.6587,-4.6581,-4.6576,-4.6583,-4.6673,-4.6675,-4.6676,-4.6678,0,-4.5677,-4.5691,-4.5772,-4.586,-4.5928,-4.5998,-4.6066,-4.611,-4.6146,-4.6211,-4.6307,-4.6366,-4.6482,-4.6574,-4.6662,-4.6703,-4.6696,-4.6698,-4.672,-4.6716,-4.6701,-4.6709,-4.6478,-4.6692,-4.6691,-4.669,-4.6689,-4.6688,-4.5801,-4.5871,-4.5942,-4.6032,-4.6086,-4.6149,-4.622,-4.626,-4.634,-4.6437,-4.6447,-4.6551,-4.6619,-4.6737,-4.6781,-4.6862,-4.6839,-4.6871,-4.6879,-4.6887,-4.6892,-4.6689,-4.6878,-4.6877,-4.6877,-4.6877,-4.6877,0,-4.5979,-4.6024,-4.6107,-4.6202,-4.6273,-4.6262,-4.6336,-4.6396,-4.6487,-4.6552,-4.6626,-4.6736,-4.6825,-4.6877,-4.6966,-4.702,-4.7019,-4.7042,-4.7038,-4.7047,-4.6907,-4.6879,-4.7042,-4.7042,-4.7042,-4.7042,-4.7042,-4.7041,-4.608,-4.6198,-4.622,-4.6364,-4.6408,-4.6509,-4.6553,-4.6611,-4.6662,-4.6785,-4.686,-4.6893,-4.6952,-4.7045,-4.7126,-4.7139,-4.7171,-4.7196,-4.7207,-4.7074,-4.7057,-4.7041,-4.7015,-4.7204,-4.7204,-4.734,-4.7342,-4.7343]}]]